Theta_e
344 349 350 351 351 351 350 350 350 350 351 351 351 352 352 352 352 352 352 351 351 354 352 352 352 352 351 350 350 351 349 349 349 350 351 350 349 349 348 348 345 343 349
346 348 348 350 350 350 350 350 351 351 351 352 351 351 351 351 351 351 351 350 349 353 351 351 351 350 350 349 350 349 349 347 347 349 350 350 349 347 346 347 347 347 349
346 348 348 349 350 350 351 351 351 352 351 351 350 350 350 350 350 350 349 346 348 351 350 350 350 350 349 348 348 348 347 347 347 346 347 346 346 347 346 346 347 348 348
347 348 347 348 349 350 350 350 350 351 350 350 349 349 350 350 350 350 349 347 349 350 349 348 347 347 347 347 347 346 346 345 344 345 344 345 344 347 346 346 345 346 346
346 346 348 347 348 349 349 349 349 349 347 348 348 349 349 349 350 350 349 348 348 347 348 347 345 345 346 345 345 344 344 343 343 342 345 345 345 345 345 345 344 344 344
345 345 346 345 347 348 349 349 348 347 346 347 347 348 349 349 349 349 348 348 349 350 348 344 343 344 344 343 342 342 341 341 340 341 340 342 341 344 344 344 344 345 344
345 346 348 344 347 349 349 348 347 346 346 346 347 347 347 348 348 348 347 347 347 346 345 343 344 344 343 342 341 340 339 339 341 339 339 340 342 344 343 342 343 343 343
345 347 348 347 347 347 347 346 345 345 345 345 346 347 347 346 346 346 345 345 345 343 343 342 343 343 342 340 339 337 337 338 340 339 339 340 343 342 340 342 342 342 343
346 347 347 349 349 345 343 342 341 342 343 343 344 345 344 343 343 344 343 343 342 341 341 341 341 340 340 339 338 336 335 337 340 340 338 339 342 341 340 340 341 342 342
344 345 346 347 349 349 349 341 340 340 341 341 343 342 341 340 341 341 341 341 341 341 340 341 340 339 339 337 336 335 335 336 339 339 339 338 342 341 342 341 341 341 339
340 344 345 345 348 348 348 346 342 341 341 340 342 341 340 342 340 339 338 340 341 340 339 339 338 337 336 336 335 335 335 338 339 338 338 338 342 341 342 341 340 339 338
338 338 342 344 346 346 344 347 348 345 343 342 343 347 346 346 343 337 337 338 340 339 338 337 336 335 334 337 338 335 337 338 337 338 338 337 340 340 339 339 337 336 334
340 343 344 345 343 347 345 344 344 344 344 343 344 345 346 345 344 339 338 338 340 338 338 337 337 339 339 336 336 335 336 337 336 337 337 337 340 339 339 338 336 336 333
338 342 343 344 344 346 345 343 344 342 343 342 342 344 344 342 342 341 337 337 337 337 338 339 338 339 339 337 336 335 335 334 335 336 336 334 338 339 338 338 336 335 333
322 339 343 345 343 344 343 343 344 343 342 342 341 342 342 340 340 341 339 337 335 334 335 335 336 336 337 338 337 336 335 335 335 335 337 332 334 339 339 338 337 335 333
312 314 320 344 346 346 342 342 343 343 342 342 341 341 342 339 340 339 340 339 336 335 333 333 333 334 334 335 337 337 336 336 335 336 337 338 331 335 338 338 337 336 335
310 312 315 320 346 345 345 344 344 343 342 341 340 341 341 340 339 339 338 338 338 337 336 333 331 330 330 329 331 337 337 337 335 336 337 338 337 330 333 337 337 336 335
309 310 314 318 339 347 345 345 343 343 343 341 340 339 341 340 339 337 336 338 339 338 336 333 331 329 328 327 329 332 334 337 337 336 336 338 339 339 333 333 334 337 335
308 309 312 315 314 320 342 344 345 347 344 341 339 338 340 339 339 337 335 336 340 338 336 334 332 330 328 326 327 333 336 336 338 335 335 337 339 339 340 332 330 332 334
307 309 311 313 315 317 319 341 342 343 343 342 338 339 339 339 338 337 335 336 337 336 335 335 333 331 329 327 324 329 337 338 338 337 336 335 337 339 340 341 339 336 329
306 306 308 310 313 315 316 318 338 336 339 339 339 338 339 338 338 337 334 335 336 334 334 335 334 332 328 328 326 331 335 337 337 338 338 336 336 337 340 340 340 339 337
304 305 306 308 310 311 312 314 319 332 339 338 338 338 339 338 338 337 336 334 334 332 334 333 333 329 329 329 323 326 323 330 336 337 337 336 337 336 337 338 339 339 339
303 304 305 307 308 311 311 313 317 330 337 335 336 336 337 337 337 336 336 335 334 333 331 332 331 330 325 328 330 324 322 319 329 336 336 336 336 336 336 337 337 337 339
302 304 305 307 307 308 311 311 312 315 316 333 335 336 337 339 338 336 336 336 336 333 333 332 331 331 329 324 327 329 335 334 325 326 332 334 336 335 337 337 336 336 336
303 303 304 305 306 307 308 310 311 311 315 318 325 334 335 338 338 336 336 336 336 335 334 334 333 331 330 327 325 325 330 331 335 330 327 329 331 334 337 337 337 336 337
303 303 303 304 304 305 307 308 309 309 310 313 316 319 331 333 336 338 335 336 335 335 335 334 334 332 331 331 330 328 325 326 327 330 329 330 330 333 332 335 336 336 336
Wind_Speed
12 14 10 8 10 13 18 18 18 18 19 20 20 18 17 16 15 16 17 17 16 18 19 18 18 18 19 19 18 16 15 16 16 18 18 20 20 18 18 14 16 18 19
18 15 11 9 11 13 17 19 18 19 19 20 19 18 16 16 16 16 17 16 17 18 19 19 18 19 19 19 17 15 18 16 15 16 18 19 19 19 19 16 17 18 18
19 15 14 10 12 14 18 18 19 19 19 19 19 17 17 16 16 16 17 19 19 18 19 19 18 18 19 17 15 17 16 14 11 13 12 13 16 18 19 16 17 18 17
18 15 14 10 11 14 17 18 18 19 19 17 18 17 17 16 15 17 17 17 17 18 19 19 17 17 16 15 14 15 15 14 12 10 12 13 14 18 18 17 17 17 17
16 15 14 10 10 12 17 18 17 17 18 17 16 17 17 17 16 17 17 17 17 19 18 18 15 15 14 13 13 14 13 12 10 12 13 12 12 15 17 14 15 14 14
16 15 14 11 9 12 15 17 17 16 16 16 15 16 17 17 16 16 16 16 17 17 15 13 13 13 12 12 11 11 10 9 11 13 11 11 13 15 16 15 16 18 16
15 14 15 12 10 12 15 16 16 15 14 14 15 15 16 17 16 14 15 14 13 13 13 13 14 14 13 11 10 10 11 8 13 11 11 10 12 15 16 15 15 15 15
14 13 13 12 10 10 14 14 14 14 13 11 12 13 15 15 15 14 14 13 12 11 11 12 13 14 12 11 10 10 9 9 11 11 10 9 13 14 16 14 12 12 15
10 12 10 11 10 7 9 12 12 12 11 10 10 11 11 13 12 13 13 12 12 11 11 11 13 13 12 12 11 10 8 5 10 8 9 7 11 14 15 14 11 14 17
6 7 8 8 9 10 10 7 10 10 10 10 9 9 10 10 11 11 11 11 11 11 11 12 13 12 12 12 11 10 9 6 8 9 7 7 9 13 12 11 13 14 14
5 6 6 7 7 8 9 9 9 9 9 10 9 8 9 9 11 12 8 9 9 10 11 11 11 10 10 9 10 10 9 5 7 5 5 9 10 13 13 13 13 12 12
5 5 6 7 7 6 6 9 9 9 8 8 10 10 6 8 8 8 9 8 8 8 9 10 9 9 8 7 6 8 4 6 5 5 5 8 11 12 13 12 13 13 13
6 5 7 7 7 8 7 6 5 5 6 6 9 10 7 5 5 5 6 7 7 7 7 8 8 6 7 6 6 5 6 6 4 4 7 5 8 12 12 12 13 13 13
8 10 11 10 8 10 6 6 7 6 7 6 7 9 8 5 6 6 5 7 7 7 8 8 6 6 6 6 6 6 6 5 4 4 6 5 7 10 12 12 12 13 12
13 10 10 12 10 9 10 7 8 9 8 9 8 10 8 8 7 7 6 6 7 7 8 7 7 6 6 6 6 6 7 6 6 4 4 7 7 9 11 13 12 13 12
19 17 17 11 11 12 11 12 10 9 10 9 9 10 12 9 8 8 7 7 7 7 7 7 8 7 6 5 6 7 7 7 7 6 5 8 7 8 10 12 12 13 13
16 18 19 15 14 12 13 11 11 11 10 10 9 13 15 13 11 11 8 8 8 6 6 5 5 5 6 5 6 6 7 8 8 8 7 6 9 8 8 11 11 12 12
17 18 18 15 12 15 12 8 8 10 11 9 9 9 16 16 14 12 9 9 9 7 6 6 6 6 6 6 6 6 7 8 9 9 8 7 7 8 8 9 11 11 12
19 19 19 18 14 15 10 9 8 11 11 9 8 9 14 16 15 12 10 10 11 9 8 7 6 6 7 7 6 5 6 7 9 8 10 10 9 8 7 11 9 10 12
19 19 18 16 16 14 11 7 6 7 8 8 8 9 13 13 15 13 11 11 11 10 10 9 9 7 5 7 6 6 5 6 7 8 9 9 9 10 9 9 10 10 11
18 20 20 19 18 12 10 8 6 9 8 7 9 12 15 14 16 15 12 13 12 12 13 13 10 10 8 5 5 4 5 7 9 8 8 9 11 11 10 10 8 7 9
19 19 20 19 19 12 9 8 5 6 6 7 7 10 13 14 15 15 14 13 13 11 13 12 13 9 9 9 7 5 6 8 9 10 9 10 12 10 11 13 12 12 10
20 19 18 18 19 16 16 9 8 7 4 5 8 9 12 15 16 16 15 13 13 12 12 13 13 15 10 9 13 7 6 8 5 7 13 11 12 11 11 12 13 13 13
19 18 18 17 18 16 18 14 16 7 8 4 7 8 10 15 16 15 16 15 14 11 13 12 12 13 11 11 9 12 7 1 6 5 5 10 11 13 14 11 12 14 14
17 17 17 18 18 18 17 15 11 12 9 8 9 8 10 10 14 17 16 16 15 12 14 14 13 15 12 11 12 9 13 9 7 6 5 5 8 10 12 12 12 12 15
15 16 17 18 19 18 17 17 16 16 14 10 10 8 7 6 7 13 16 14 14 14 15 14 16 16 15 14 12 12 11 13 12 9 8 5 7 7 10 10 12 12 11
Wind_Direction
149 141 119 115 117 115 111 111 113 115 116 113 109 108 107 105 103 100 98 95 95 97 103 102 97 97 93 95 91 88 88 86 88 87 86 89 86 84 81 79 88 84 76
142 140 117 116 122 118 113 113 114 116 114 109 109 108 109 107 106 105 105 107 109 103 103 94 91 95 99 98 89 85 78 82 83 87 95 89 85 84 81 77 75 77 80
134 139 137 124 128 125 117 116 115 113 112 112 113 115 113 113 113 112 109 114 110 107 103 102 103 104 102 94 85 87 90 85 77 88 84 92 93 85 82 74 84 80 78
132 136 139 133 129 126 117 115 115 116 116 117 119 121 119 117 117 115 116 115 111 111 111 109 104 104 102 96 92 92 89 82 73 107 95 96 92 93 87 83 75 79 81
133 136 133 127 129 127 119 119 120 121 122 124 126 125 124 123 120 120 118 121 121 119 116 112 104 105 100 96 95 95 94 92 94 101 93 94 95 89 91 95 102 99 91
138 139 130 123 133 132 123 123 124 125 128 129 131 130 129 126 123 121 119 119 119 119 119 115 113 112 107 102 101 98 95 94 102 97 102 93 97 99 97 88 86 81 79
139 140 142 127 137 139 131 129 129 129 131 133 134 134 130 127 126 122 118 118 120 120 118 113 117 118 114 108 101 93 88 87 111 108 106 109 110 108 103 98 95 99 96
138 139 141 134 136 140 133 130 129 132 132 134 134 131 129 130 128 124 121 121 117 117 111 110 116 117 117 114 106 94 93 115 116 118 118 116 115 116 116 106 107 104 103
132 135 141 147 139 114 123 129 130 132 131 129 129 126 125 127 130 127 127 129 130 125 117 122 127 126 127 125 119 110 99 88 121 121 122 120 119 124 121 120 114 105 97
121 135 139 150 155 152 149 123 129 130 131 131 128 125 125 125 127 129 130 135 136 130 123 133 135 135 135 134 129 126 110 113 121 128 120 125 130 128 122 111 101 99 108
145 155 159 165 168 158 153 145 127 127 128 132 134 120 138 147 153 154 135 145 144 136 131 138 139 135 131 131 134 129 150 133 135 135 140 143 143 138 131 123 118 120 120
167 188 191 184 184 176 166 160 162 159 163 167 164 165 165 159 162 162 151 141 143 139 133 135 130 124 158 146 144 142 148 142 144 149 136 159 151 146 145 136 133 132 128
208 203 203 202 198 201 181 179 176 172 169 172 175 169 169 168 164 172 159 160 160 155 156 156 151 169 165 158 161 166 150 159 150 154 138 166 164 156 152 149 143 139 137
241 218 210 212 200 207 197 205 192 183 177 182 187 184 174 178 189 190 185 172 174 175 168 175 173 163 163 171 172 169 169 164 166 163 148 183 172 163 158 154 152 145 143
351 297 236 215 204 205 206 208 205 203 192 189 187 191 192 186 190 199 197 196 190 180 177 178 178 176 174 179 189 185 185 179 176 172 173 176 179 172 168 164 160 157 152
352 348 335 238 217 213 195 198 208 206 199 198 190 196 197 198 190 197 206 208 205 200 189 186 183 183 186 180 186 194 193 192 190 185 184 176 192 183 181 176 173 166 165
355 347 345 324 234 210 223 211 197 200 204 205 206 201 199 200 199 192 201 214 209 208 199 193 195 192 189 190 199 195 198 203 199 194 197 190 182 201 195 178 181 182 177
359 357 348 351 291 231 220 216 220 209 200 204 211 212 208 202 201 200 202 206 204 202 208 205 200 201 206 203 202 209 209 205 207 203 201 202 197 198 196 196 192 189 185
358 355 357 357 1 350 250 223 215 223 214 200 199 211 219 212 203 207 211 211 199 203 205 208 208 221 208 209 214 215 203 204 204 206 208 209 206 211 204 181 200 195 191
360 357 356 359 358 353 342 225 222 218 227 204 202 209 217 218 212 210 214 216 209 205 208 206 212 205 228 225 220 217 215 209 207 212 213 211 215 214 218 213 200 208 199
8 0 357 355 358 356 356 335 248 222 211 219 209 210 207 213 212 211 217 213 209 216 213 207 209 212 209 212 211 228 229 226 219 217 213 213 215 216 217 222 218 219 200
2 2 355 353 354 355 348 322 278 301 227 216 216 209 214 207 209 212 213 214 214 215 218 216 209 206 217 197 212 231 227 219 225 220 213 213 218 215 218 220 221 222 227
1 359 356 350 349 353 350 334 326 313 238 203 211 212 212 211 208 210 212 215 211 214 215 214 214 215 215 202 208 214 212 235 210 199 217 218 214 215 218 220 220 224 224
357 355 356 353 353 352 353 352 351 329 328 307 211 218 220 213 214 210 212 209 212 213 216 213 213 219 222 220 208 225 236 264 221 214 215 225 219 220 220 219 219 219 221
357 356 355 357 358 355 352 354 349 345 334 320 325 246 219 211 214 216 211 212 213 210 216 211 206 206 212 224 220 207 225 224 235 255 221 208 224 231 226 223 223 222 220
360 357 356 357 358 357 355 352 352 350 343 341 339 330 303 213 213 223 225 221 217 219 219 214 210 206 210 215 226 228 221 217 222 224 237 225 230 213 226 233 227 224 224